Regional Weather Roundup
Issued by NWS Pendleton, OR

Current Version | Previous Version | Text Only | Print | Product List | Glossary On
Versions: 1 2 3 4 5 6 7 8 9 10 11 12 13 14 15 16 17 18 19 20 21 22 23 24 25 26 27 28 29 30 31 32 33 34 35 36 37 38 39 40 41 42 43 44 45 46 47 48 49 50
000
ASUS46 KPDT 301825
RWRPDT
PENDLETON REGIONAL WEATHER ROUNDUP
NATIONAL WEATHER SERVICE PENDLETON OREGON
1100 AM PDT SUN AUG 30 2015

NOTE: FAIR INDICATES FEW OR NO CLOUDS BELOW 12,000 FEET WITH NO
SIGNIFICANT WEATHER AND/OR OBSTRUCTIONS TO VISIBILITY.

# INDICATES UNOFFICIAL STATION AND DATA

WAZ520-301910-
EAST SLOPES OF WASHINGTON CASCADES

CITY            SKY/WX      TMP DP  RH  WIND    PRES   REMARKS
#BULLFROG 2SW   N/A         51  47  86  CALM    27.54R
#BUMPING DAM    N/A         47  N/A N/A SW9G24  N/A
#CLE ELUM HS    N/A         54  48  80  N1      29.87R
#CLE ELUM LAKE  N/A         51  46  83  W1      29.85R
#CLIFFDEL 2NW   N/A         50  49  96  N1      N/A
#GLENWOOD       N/A         56  52  86  S5      29.92R
#MANASTASH CYN  N/A         54  45  71  CALM    29.89R
#NELSON         N/A         53  51  93  CALM    29.87R
#NELSON 3SW     N/A         49  47  93  CALM    30.04R
#NILE           N/A         57  47  69  W1      29.13R
#RONALD 2NW     N/A         54  -2  10  NW2     29.81R
#SNOWDEN        N/A         52  47  83  CALM    N/A
#TEANAWAY 4NE   N/A         55  52  90  CALM    N/A
#TROUT LAKE 1NE N/A         54  50  86  CALM    29.94R
$$

WAZ521-301910-
SIMCOE HIGHLANDS

CITY            SKY/WX      TMP DP  RH  WIND    PRES   REMARKS
#BICKLETON HS   N/A         56  39  53  W21     N/A
#CENTERVILLE 4W N/A         57  52  83  CALM    29.73R
#CENTERVILLE 1SWN/A         56  50  80  W12     29.91R
#GOLDENDALE     N/A         57  52  83  W10     N/A
#GOLDENDALE 1NE N/A         57  45  64  SW6     N/A
#GOLDENDALE 5WNWN/A         56  50  80  SW15    29.91R
#GOODNOE HILLS  N/A         63  50  62  W20     N/A
#LYLE 6NE       N/A         55  53  93  S5      29.91R
$$

WAZ026-301910-
KITTITAS VALLEY

CITY            SKY/WX      TMP DP  RH  WIND    PRES   REMARKS
ELLENSBURG AP   CLOUDY      60  47  62  NW16    29.90R
6HR MIN TEMP:   56; 6HR MAX TEMP:   60; 6HR PCP:  0.02;

YTC-OPS AREA    MOCLDY      54  46  74  SW17G25 29.88
#ELLENSBURG CWU N/A         57  47  69  N9      29.80R
#ELLENSBURG 3NE N/A         57  47  69  N7      29.89S
#ELLENSBURG 1E  N/A         56  45  66  CALM    N/A
#KITTITAS 4N    N/A         59  46  62  N10     29.89S
#KITTITAS 3S    N/A         58  49  72  NW5     29.83R
#THORP 6N       N/A         52  46  80  N12     29.85R
$$

WAZ027-301910-
YAKIMA VALLEY

CITY            SKY/WX      TMP DP  RH  WIND    PRES   REMARKS
SUNNYSIDE AP    LGT RAIN    62  50  65  W10     29.92R
YAKIMA AIRPORT  PTCLDY      67  47  49  VRB3    29.90R
6HR MIN TEMP:   61; 6HR MAX TEMP:   69; 6HR PCP:  0.01;

#DONALD 2NE     N/A         65  34  31  S3      28.77R
#GRANDVIEW      N/A         65  48  54  W2      29.91R
#MABTON         N/A         66  49  54  SW10    29.92R
#MOXEE 2E       N/A         66  35  32  CALM    29.86R
#NACHES 2SW     N/A         58  49  72  SW2     29.91R
#OUTLOOK DOT    N/A         N/A N/A N/A S13     N/A
#SELAH 8E       N/A         61  46  58  W9      N/A
#TERRACE HTS    N/A         64  48  56  CALM    29.83R
#TOPPENISH      N/A         64  45  50  W8      29.81R
#WAPATO 4NE     N/A         65  34  31  S3      28.77R
#W YAKIMA       N/A         63  46  54  W2      29.87R
#WHITE SWAN 5E  N/A         64  47  54  SW17G26 29.88R
#WILEY CITY 3W  N/A         63  39  41  S2      29.88R
$$

WAZ028-301910-
LOWER COLUMBIA BASIN...WASHINGTON

CITY            SKY/WX      TMP DP  RH  WIND    PRES   REMARKS
PASCO           PTCLDY      68  49  51  SW15    29.92R
6HR MIN TEMP:   61; 6HR MAX TEMP:   68; 6HR PCP:  TRACE;

#BENTON CITY    N/A         67  49  52  SW15G25 29.78R
#CONNELL 5N     N/A         62  54  75  SW7     29.86R
#CONNELL 5NW    N/A         61  54  78  SW8     29.83R
#ELTOPIA 6NW    N/A         62  52  70  SW9G24  28.88R
#KAHLOTUS       N/A         62  51  67  W17G25  29.87R
#KENNEWICK      N/A         51  47  86  CALM    27.54R
#KENNEWICK 3S   N/A         63  54  72  N7      29.90R
#PATERSON       N/A         65  52  63  W12     29.91R
#PROSSER        N/A         66  45  47  S12     29.89R
#SAGEMOOR 2W    N/A         63  53  70  SW8     29.72R
#TOUCHET 2S     N/A         65  52  63  W15     29.89R
#WEST PASCO     N/A         67  52  59  S7      29.88R
$$

WAZ029-301910-
FOOTHILLS OF THE BLUES...WASHINGTON

CITY            SKY/WX      TMP DP  RH  WIND    PRES   REMARKS
WALLA WALLA AP  LGT RAIN    63  53  70  SW9     29.96R
6HR MIN TEMP:   58; 6HR MAX TEMP:   70; 6HR PCP:  0.01;

#DAYTON SCHOOL  N/A         60  47  62  N3      29.96R
#LOWDEN 2SE     N/A         65  53  65  W9      29.91R
#PLEASANT VIEW 1N/A         56  52  86  SW10    29.91R
#PRESCOTT       N/A         59  54  83  CALM    29.91R
#SUDBURY        N/A         65  N/A N/A CALM    N/A
#WHITMAN COLLEGEN/A         63  52  67  S3      29.97R
#WAITSBURG 8N   N/A         57  41  55  S7      29.82R
#WALLA WALLA U  N/A         65  54  68  CALM    29.91R
#WHITMAN MISSIONN/A         66  53  63  SW7     29.93R
$$

WAZ030-301910-
BLUE MOUNTAINS...WASHINGTON

CITY            SKY/WX      TMP DP  RH  WIND    PRES   REMARKS
#SKI BLUEWOOD   N/A         55  42  61  N7      29.97R
$$

ORZ009-041-WAZ024-301910-
COLUMBIA RIVER GORGE

CITY            SKY/WX      TMP DP  RH  WIND    PRES   REMARKS
THE DALLES AP   LGT RAIN    62  56  81  NW9     29.97R
6HR MIN TEMP:   60; 6HR MAX TEMP:   65; 6HR PCP:  0.01;

#ARLINGTON AIRPON/A         64  50  60  W23     29.82S
#CELILO DOT     N/A         65  56  73  SW3     N/A
#MOSIER 1S      N/A         60  51  72  NW2     29.99R
#RUFUS DOT      N/A         65  55  70  NW16    N/A

$$

ORZ510-301910-
NORTH CENTRAL OREGON

CITY            SKY/WX      TMP DP  RH  WIND    PRES   REMARKS
#CHENOWITH 1W   N/A         54  52  93  NW13    N/A
#DUFUR 9E       N/A         53  47  80  W17G28  29.97R
#GRASS VALLEY 1SN/A         59  46  62  W20     29.97R
#KENT DOT       N/A         58  41  53  N13     N/A
#MAUPIN SCHOOL  N/A         65  51  60  W2      29.99R
#MORO SCHOOL    N/A         57  53  86  NW8     29.99R
#SHANIKO 5WSW   N/A         56  40  55  SW16    N/A
#SHANIKO 4NW    N/A         56  42  59  SW10    30.01R
#TYGH VALLEY 2NEN/A         63  49  60  SW9     29.93R
#WAPANITIA AIRPON/A         61  47  60  W7      29.94R
#WASCO AIRPORT  N/A         59  49  69  W13     N/A
#WASCO 5NE      N/A         59  51  75  SW8     29.93R
$$

ORZ511-301910-
CENTRAL OREGON

CITY            SKY/WX      TMP DP  RH  WIND    PRES   REMARKS
BEND AIRPORT    MOCLDY      59  45  60  N5      30.03R
PRINEVILLE AP   CLOUDY      57  46  67  N7      30.03R
REDMOND AIRPORT LGT RAIN    60  46  60  N6      30.02R
6HR MIN TEMP:   55; 6HR MAX TEMP:   60; 6HR PCP:  TRACE;

#BEND 1SW       N/A         59  45  60  SW3     N/A
#BEND-AWBREY    N/A         59  44  57  SW13    29.90R
#BEND-KIM LN    N/A         62  47  58  SW6     29.99R
#CULVER         N/A         59  44  57  W8      29.98R
#LAKE BILLY CHINN/A         60  17  18  NW12    30.07R
#POWELL BUTTE 3EN/A         55  49  80  N7      N/A
#POWELL BUTTE   N/A         60  47  62  NE2     29.67R
#PRINEVILLE 3N  N/A         56  50  80  N3      29.90R
#WARM SPRINGS   N/A         65  44  46  SE5     29.97R

$$


ORZ509-301910-
EAST SLOPES OF OREGON CASCADES

CITY            SKY/WX      TMP DP  RH  WIND    PRES   REMARKS
#BLUE BOX PASS  N/A         47  -5  11  NW2     N/A
#CAMP SHERMAN   N/A         54  47  77  SE1     29.97R
#LA PINE 4NW    N/A         53  47  80  W6      29.97R
#SISTERS AIRPOR N/A         56  50  80  N9      30.17S
#SISTERS 1NW    N/A         55  44  66  N7      N/A
#SISTERS 3N     N/A         58  45  62  N8      30.05R
#SUNRIVER       N/A         54  49  83  NW2     29.81R
#TUMALO 3W      N/A         57  48  72  NE5     29.79R

$$

ORZ044-301910-
LOWER COLUMBIA BASIN...OREGON

CITY            SKY/WX      TMP DP  RH  WIND    PRES   REMARKS
HERMISTON       LGT RAIN    61  55  81  W9      29.95R
6HR MIN TEMP:   52; 6HR MAX TEMP:   65; 6HR PCP:  0.01;

#BOARDMAN SCHOOLN/A         66  52  61  SW7     29.95R
#BOARDMAN 8SW   N/A         66  54  65  SW8     29.93R
#ECHO 8SW       N/A         62  52  70  W7      29.96R
#IONE SCHOOL    N/A         66  45  47  SW12    29.93R
#IRRIGON 4NW    N/A         66  54  65  S10     N/A
#UMATILLA SCHOOLN/A         59  59  100 W1      30.00R
#UMATILLA       N/A         61  53  75  S7      29.86R
$$

ORZ507-301910-
NORTHERN FOOTHILLS OF THE BLUES

CITY            SKY/WX      TMP DP  RH  WIND    PRES   REMARKS
PENDLETON AIRPT LGT RAIN    62  49  62  W17     29.95R
6HR MIN TEMP:   48; 6HR MAX TEMP:   65; 6HR PCP:  TRACE;

#ADAMS 3WNW     N/A         59  52  78  SW7     29.92R
#ATHENA         N/A         60  50  69  W5      29.94R
#CAYUSE         N/A         62  51  67  W7      29.92R
#HELIX SCHOOL   N/A         60  49  67  SW8     29.91R
#HELIX 3N       N/A         60  49  67  N16G24  29.93R
#HELIX 6SW      N/A         61  50  67  SW16    29.96R
#HOLDMAN 5SE    N/A         63  51  65  W10     29.96R
#HOLDMAN 6E     N/A         61  50  67  E14     29.71R
#M-F GROVE ELEM N/A         64  49  58  SW6     29.94R
#M-FREEWATER 5SEN/A         63  51  65  SW6     29.96R
#PENDLETON DNTN N/A         65  46  50  SW1     29.98R
#PDT AQUATIC CTRN/A         63  47  56  W7      29.91R
#PDT SUNRIDGE   N/A         63  51  65  W2      29.98R
#PENDLETON 7NW  N/A         63  52  67  W10     32.07S
#TUTUILLA       N/A         62  54  75  W1      29.96R
#UMAPINE 2E     N/A         64  54  70  SW3     29.93R
#WESTON SCHOOL  N/A         61  48  62  N9      29.88R

$$

ORZ508-301910-
SOUTHERN FOOTHILLS OF THE BLUES

CITY            SKY/WX      TMP DP  RH  WIND    PRES   REMARKS
#AJAX           N/A         59  40  49  S14G29  29.92R
#CONDON SCHOOL  N/A         57  47  69  SW8     29.96R
#CONDON 5W      N/A         55  43  64  SW12    29.98R
#FOSSIL SCHOOL  N/A         66  51  58  CALM    29.94S
#HEPPNER EOC    N/A         61  50  67  W7      29.85R
#HEPPNER 4NE    N/A         57  47  69  SW10    29.90R
#LEXINGTON 2SE  N/A         65  48  54  W7      29.94R
#OLEX 4N        N/A         67  48  50  SW22    29.94R
#RUGGS 5NE      N/A         58  50  75  SW10    30.14S
#RUGGS 2SW      N/A         58  49  72  W7      29.92R

$$

ORZ502-503-301910-
BLUE MOUNTAINS

CITY            SKY/WX      TMP DP  RH  WIND    PRES   REMARKS
MEACHAM         PTCLDY      58  44  60  CALM    30.01R
6HR MIN TEMP:   38; 6HR MAX TEMP:   62;

#HEPPNER 15SE   N/A         52  47  83  CALM    29.93R
#LONG CREEK HS  N/A         61  45  56  CALM    29.96R
#PIKES PEAK     N/A         52  47  83  SW13    27.99S
#TOLLGATE       N/A         49  41  74  SW1     29.89R
#TROY SCHOOL    N/A         72  48  43  E6      29.67F
#UKIAH          N/A         61  43  51  E2      29.95R
#WESTON 4E      N/A         56  47  72  SW5     29.84R
$$

ORZ505-301910-
JOHN DAY BASIN

CITY            SKY/WX      TMP DP  RH  WIND    PRES   REMARKS
JOHN DAY        LGT RAIN    64  42  45  W16     30.02R
#JOHN DAY KJDY  N/A         66  -37  1  W7      30.27R
#DAYVILLE SCHOOLN/A         65  43  45  S6      29.97R
#MITCHELL       N/A         59  51  75  N3      30.17R
#MITCHELL 8NW   N/A         57  47  69  NW3     30.09R
#MONUMENT HS    N/A         62  44  52  CALM    29.97R
#SPRAY SCHOOL   N/A         63  N/A N/A NW7     N/A
$$

ORZ506-301910-
OCHOCO AND JOHN DAY HIGHLANDS

CITY            SKY/WX      TMP DP  RH  WIND    PRES   REMARKS
#PINE MTN OBS   N/A         47  40  76  E7G24   N/A
#PRAIRIE CITY   N/A         64  44  48  W2      29.92F
#SENECA         N/A         60  N/A N/A N7      N/A
#SENECA 9NW     N/A         58  41  53  S2      29.88R
$$

ORZ049-301910-
GRANDE RONDE VALLEY

CITY            SKY/WX      TMP DP  RH  WIND    PRES   REMARKS
LA GRANDE       PTCLDY      61  39  44  SE3     29.97R
#COVE           N/A         59  49  69  CALM    30.00R
#COVE SCHOOL    N/A         59  46  62  CALM    30.00R
#COVE 6NW       N/A         58  47  67  CALM    29.94R
#ELGIN 3N       N/A         67  40  37  S9      29.93R
#ELGIN 1E       N/A         67  43  42  CALM    N/A
#ISLAND CITY 4N N/A         61  59  93  CALM    29.98R
#LADD CYN DOT   N/A         58  46  64  NW1     N/A
#LA GRANDE ELEM N/A         62  47  58  CALM    29.98S
#UNION 1S       N/A         58  48  69  CALM    29.79R
$$

ORZ050-301910-
WALLOWA COUNTY

CITY            SKY/WX      TMP DP  RH  WIND    PRES   REMARKS
#ENTERPRISE HS  N/A         64  46  52  CALM    29.98R
#IMNAHA SCHOOL  N/A         71  48  44  CALM    29.88S
#IMNAHA 10S     N/A         71  42  35  SW8     29.92R
#JOSEPH 3N      N/A         63  44  50  CALM    29.99R
#JOSEPH 3W      N/A         63  38  39  CALM    29.84R
#LOSTINE        N/A         61  46  58  CALM    29.65R
#MT HOWARD 8000 N/A         43  34  70  SW7     30.12R
#PROMISE 1S     N/A         62  42  48  NE12    29.95R
#WALLOWA SCHOOL N/A         67  43  42  W1      29.91F



$$



USA.gov is the U.S. government's official web portal to all federal, state and local government web resources and services.